Weather in Novoashirovo

Russia / Orenburg Oblast     53°20′01″N   53°18′50″E
temp.,
°C
wind,
m/s
gust,
m/s
humid.,
%
clouds,
%
prec.,
mm/h
press.,
hPa
HPBL,
m
28 february, sun
sun2823:000ssw5998100 1.9 998453
02:000sw4798100 1.1 998381
05:00−1w3598100 2.1 998246
08:00−8nw479698 0.5 999161
11:00−10nw479796 0.6 1000198
14:00−8nw5894100 0.1 1003371
17:00−9nw6893100 0.1 1005437
20:00−12nw4896100 0.1 1008213
1 march, mon
mon123:00−15nw359697 0.1 1011101
02:00−16nw349689 0.0 101374
05:00−16nw349785 0.1 1015101
08:00−17nw349783 0.1 1016109
11:00−16nw349682 0.1 1019177
14:00−15nw349484 0.0 1019250
17:00−15wnw369586 0.1 1021286
20:00−19wnw2310079 0.0 102120
2 march, tue
tue223:00−21w2210075 0.0 102220
02:00−22wsw239926 0.0 102121
05:00−23sw349931 0.0 101949
08:00−21s4910074 0.0 1017156
11:00−16ssw7129687 0.1 1014300
14:00−12ssw81394100 0.2 1011420
17:00−9ssw81493100 0.9 1008632
20:00−6ssw71494100 0.8 1005722
3 march, wed
wed323:00−4ssw71394100 1.4 1003615
02:00−4ssw61294100 0.6 1000498
05:00−4sw51096100 1.1 999341
08:00−5wsw499791 0.3 999227
11:00−4w589594 0.4 1000341
14:00−2wnw5793100 0.1 1001681
17:00−2nw5791100 0.3 1002630
20:00−4nw4894100 0.1 1003438
4 march, thu
thu423:00−4nw3896100 0.2 1005437
02:00−8wnw349698 0.1 100673
05:00−8wnw389692 0.3 1008228
08:00−9nw489682 0.1 1010198
11:00−11wnw489583 0.1 1012259
14:00−8w479378 0.0 1013352
17:00−7wsw499276 0.0 1014406
20:00−9sw7139377 0.0 1013344